Total_Precipitation_Accumulation
0.20 0.17 0.12 0.12 0.16 0.32 0.53 0.41 0.34 0.10 0.21 0.65 0.77 0.48 0.06 0.01 0.00 0.01 0.02 0.03 0.03 0.02 0.01 0.01 0.01 0.00 0.01 0.00 0.01 0.01 0.03 0.09 0.04 0.00 0.00 0.00 0.00 0.00 0.00 0.00 0.01 0.00 0.01 0.01
0.25 0.23 0.25 0.18 0.17 0.35 0.34 0.74 0.44 0.40 0.40 0.43 0.36 0.10 0.02 0.01 0.01 0.01 0.02 0.01 0.01 0.02 0.03 0.11 0.04 0.02 0.00 0.00 0.00 0.01 0.02 0.14 0.14 0.03 0.01 0.01 0.01 0.01 0.01 0.03 0.06 0.04 0.01 0.01
0.31 0.34 0.31 0.32 0.28 0.32 0.43 0.74 1.01 1.08 1.21 0.32 0.07 0.05 0.05 0.02 0.00 0.01 0.03 0.03 0.03 0.05 0.05 0.10 0.06 0.03 0.02 0.01 0.01 0.01 0.03 0.02 0.02 0.01 0.00 0.01 0.00 0.00 0.01 0.07 0.16 0.05 0.01 0.01
0.17 0.27 0.43 0.41 0.34 0.39 0.72 1.07 0.75 0.49 0.87 0.56 0.19 0.03 0.02 0.01 0.01 0.00 0.01 0.03 0.02 0.03 0.03 0.03 0.02 0.02 0.02 0.02 0.02 0.02 0.03 0.07 0.03 0.02 0.01 0.01 0.01 0.00 0.01 0.03 0.02 0.02 0.02 0.01
0.36 0.31 0.29 0.46 0.51 0.60 0.92 0.80 0.39 0.11 0.18 0.13 0.19 0.27 0.13 0.01 0.00 0.01 0.01 0.01 0.01 0.02 0.03 0.01 0.00 0.03 0.05 0.04 0.04 0.06 0.11 0.12 0.07 0.07 0.02 0.03 0.04 0.01 0.00 0.01 0.00 0.00 0.00 0.01
0.60 0.72 0.49 0.34 0.48 1.13 1.44 0.58 0.13 0.17 0.13 0.21 0.31 0.20 0.13 0.03 0.02 0.02 0.00 0.02 0.06 0.05 0.02 0.02 0.07 0.14 0.12 0.12 0.10 0.09 0.13 0.17 0.19 0.18 0.03 0.18 0.36 0.02 0.00 0.00 0.00 0.01 0.02 0.01
0.72 0.77 0.75 0.59 0.47 0.77 0.92 0.37 0.12 0.25 0.23 0.07 0.20 0.17 0.13 0.09 0.07 0.10 0.03 0.06 0.09 0.05 0.05 0.12 0.17 0.11 0.07 0.06 0.03 0.05 0.06 0.13 0.25 0.22 0.12 0.33 0.10 0.00 0.00 0.00 0.00 0.00 0.00 0.00
0.77 0.85 0.68 0.54 0.47 0.52 0.68 0.40 0.25 0.16 0.17 0.05 0.03 0.08 0.12 0.15 0.13 0.12 0.11 0.04 0.06 0.14 0.20 0.31 0.33 0.25 0.15 0.04 0.01 0.00 0.01 0.05 0.21 0.22 0.20 0.07 0.01 0.00 0.00 0.00 0.00 0.00 0.00 0.00
0.68 0.75 0.79 0.55 0.44 0.51 0.73 0.44 0.22 0.23 0.27 0.11 0.01 0.03 0.04 0.12 0.17 0.21 0.13 0.09 0.11 0.21 0.25 0.32 0.29 0.19 0.08 0.03 0.02 0.00 0.00 0.04 0.15 0.17 0.15 0.06 0.00 0.00 0.00 0.00 0.00 0.00 0.00 0.00
0.63 0.69 0.97 0.74 0.57 0.53 0.68 0.65 0.22 0.31 0.47 0.12 0.02 0.05 0.06 0.04 0.08 0.15 0.13 0.15 0.25 0.32 0.33 0.37 0.19 0.08 0.04 0.02 0.01 0.05 0.07 0.10 0.13 0.09 0.07 0.01 0.00 0.00 0.00 0.01 0.00 0.00 0.00 0.00
0.52 0.64 0.89 0.85 0.74 0.67 0.87 0.82 0.31 0.30 0.51 0.22 0.06 0.03 0.05 0.09 0.07 0.06 0.07 0.14 0.21 0.48 0.55 0.36 0.29 0.10 0.02 0.02 0.00 0.01 0.07 0.14 0.14 0.12 0.15 0.04 0.00 0.00 0.00 0.00 0.00 0.00 0.00 0.00
0.32 0.53 0.69 0.85 0.70 0.66 0.88 1.18 0.51 0.23 0.47 0.39 0.14 0.09 0.06 0.03 0.04 0.08 0.07 0.05 0.04 0.11 0.26 0.20 0.12 0.16 0.18 0.10 0.05 0.03 0.04 0.04 0.05 0.11 0.07 0.02 0.00 0.02 0.02 0.01 0.00 0.00 0.00 0.00
0.23 0.46 0.62 0.72 0.57 0.55 0.80 1.01 0.53 0.41 0.68 0.64 0.26 0.14 0.06 0.03 0.04 0.05 0.19 0.13 0.04 0.09 0.15 0.28 0.31 0.26 0.11 0.11 0.09 0.05 0.03 0.02 0.04 0.04 0.02 0.01 0.01 0.01 0.01 0.01 0.02 0.00 0.00 0.00
0.32 0.42 0.51 0.56 0.52 0.54 0.82 1.21 0.56 0.45 0.65 0.69 0.41 0.10 0.06 0.03 0.02 0.04 0.05 0.05 0.13 0.17 0.20 0.31 0.30 0.27 0.19 0.14 0.09 0.04 0.03 0.02 0.04 0.07 0.11 0.02 0.02 0.03 0.04 0.02 0.01 0.00 0.00 0.00
0.57 0.56 0.60 0.50 0.49 0.63 0.99 1.22 0.62 0.30 0.27 0.41 0.57 0.19 0.09 0.04 0.07 0.07 0.05 0.05 0.10 0.12 0.24 0.42 0.34 0.25 0.26 0.13 0.13 0.07 0.01 0.01 0.04 0.13 0.05 0.02 0.02 0.01 0.05 0.06 0.03 0.00 0.00 0.00
0.72 0.79 0.85 0.57 0.47 0.72 2.11 2.84 1.39 0.47 0.15 0.21 0.59 0.57 0.26 0.12 0.12 0.23 0.16 0.12 0.09 0.12 0.18 0.21 0.20 0.17 0.30 0.29 0.20 0.09 0.00 0.00 0.00 0.02 0.01 0.01 0.02 0.05 0.03 0.02 0.01 0.00 0.00 0.00
0.56 0.52 0.57 0.54 0.60 1.04 1.57 0.93 0.72 0.36 0.38 0.55 0.41 0.64 0.61 0.38 0.32 0.33 0.42 0.39 0.24 0.14 0.15 0.08 0.06 0.13 0.31 0.29 0.10 0.04 0.00 0.00 0.00 0.00 0.01 0.05 0.04 0.06 0.03 0.01 0.00 0.00 0.00 0.00
0.72 0.57 0.55 0.49 0.61 0.83 0.47 0.07 0.04 0.09 0.56 0.58 0.33 0.63 0.90 0.63 0.42 0.45 0.35 0.41 0.32 0.30 0.20 0.10 0.06 0.10 0.14 0.13 0.02 0.00 0.00 0.00 0.00 0.00 0.01 0.01 0.03 0.05 0.02 0.01 0.00 0.00 0.00 0.00
0.65 0.56 0.70 1.13 1.32 1.03 0.52 0.14 0.08 0.08 0.48 0.40 0.24 0.21 0.55 0.36 0.23 0.27 0.24 0.27 0.27 0.27 0.29 0.14 0.09 0.13 0.08 0.01 0.00 0.00 0.00 0.00 0.00 0.00 0.01 0.02 0.02 0.02 0.01 0.00 0.00 0.00 0.00 0.00
0.39 0.55 0.75 1.11 0.69 0.28 0.47 0.80 0.80 0.78 0.51 0.18 0.26 0.05 0.32 0.24 0.15 0.15 0.14 0.25 0.15 0.15 0.13 0.09 0.12 0.04 0.00 0.00 0.00 0.00 0.00 0.00 0.00 0.01 0.11 0.11 0.07 0.02 0.00 0.00 0.00 0.00 0.00 0.00
0.24 0.28 0.52 0.66 0.26 0.17 0.27 0.52 0.42 0.39 0.44 0.26 0.23 0.06 0.05 0.05 0.02 0.05 0.03 0.09 0.12 0.08 0.05 0.04 0.04 0.04 0.00 0.00 0.00 0.00 0.00 0.00 0.01 0.01 0.03 0.02 0.01 0.00 0.00 0.00 0.00 0.00 0.00 0.00
0.02 0.16 0.39 0.37 0.23 0.16 0.16 0.19 0.12 0.06 0.20 0.21 0.18 0.13 0.05 0.07 0.05 0.07 0.04 0.06 0.03 0.03 0.02 0.03 0.03 0.03 0.01 0.02 0.00 0.00 0.00 0.01 0.00 0.02 0.03 0.02 0.01 0.00 0.00 0.00 0.00 0.00 0.00 0.00
0.00 0.02 0.06 0.04 0.04 0.00 0.04 0.04 0.03 0.03 0.03 0.08 0.05 0.07 0.04 0.08 0.06 0.10 0.07 0.05 0.02 0.01 0.04 0.02 0.02 0.01 0.00 0.01 0.01 0.02 0.03 0.04 0.03 0.04 0.01 0.00 0.00 0.00 0.00 0.00 0.00 0.00 0.00 0.00
0.01 0.01 0.01 0.00 0.01 0.04 0.02 0.00 0.00 0.00 0.00 0.00 0.00 0.01 0.01 0.03 0.02 0.06 0.07 0.03 0.02 0.05 0.03 0.01 0.01 0.00 0.00 0.00 0.00 0.00 0.02 0.05 0.07 0.02 0.00 0.00 0.00 0.00 0.00 0.00 0.00 0.00 0.00 0.00
0.02 0.00 0.02 0.08 0.08 0.04 0.01 0.00 0.00 0.00 0.00 0.00 0.01 0.03 0.01 0.00 0.02 0.02 0.04 0.02 0.02 0.01 0.02 0.01 0.00 0.00 0.00 0.00 0.00 0.01 0.01 0.03 0.05 0.00 0.00 0.00 0.00 0.00 0.00 0.00 0.00 0.00 0.00 0.00
0.00 0.10 0.22 0.20 0.11 0.11 0.04 0.03 0.02 0.01 0.00 0.01 0.02 0.04 0.05 0.06 0.02 0.01 0.01 0.01 0.02 0.03 0.01 0.00 0.00 0.00 0.00 0.00 0.00 0.01 0.03 0.05 0.03 0.00 0.00 0.00 0.00 0.00 0.00 0.00 0.00 0.00 0.00 0.00
0.09 0.24 0.22 0.16 0.14 0.14 0.08 0.04 0.01 0.00 0.00 0.00 0.01 0.02 0.03 0.03 0.01 0.00 0.01 0.03 0.03 0.01 0.01 0.00 0.00 0.00 0.00 0.01 0.00 0.01 0.03 0.04 0.02 0.00 0.00 0.00 0.00 0.00 0.00 0.00 0.00 0.00 0.00 0.00